User: anonymous   Login
Location: Fauquembergues
(50.6005°N, 2.0987°E)
Time: 00:21:23
(UTC+00:00)
Language:

Meteor 1-29 - Orbit

View from above orbital plane
View from above orbital plane
View from above satellite
View from above satellite

Ground track
Ground track

The orbit data is extracted from the following two-line orbital elements,

1 11251U 79005A   20273.39809208 +.00002140 +00000-0 +57620-4 0  9995
2 11251 097.6545 200.6549 0016981 109.7818 250.5259 15.38941560824524
Epoch (UTC): 29 September 2020 09:33:15
Eccentricity: 0.0016981
inclination: 97.6545°
perigee height: 437 km
apogee height: 461 km
right ascension of ascending node: 200.6549°
argument of perigee: 109.7818°
revolutions per day: 15.38941560
mean anomaly at epoch: 250.5259°
orbit number at epoch: 82452

The dashed part of the orbit path shows where the satellite is in the earth's shadow,  

DLR